Eau Claire, WI

10:37 PM CDT on March 27, 2017 (GMT -0500)
Chippewa Valley Regional

Weather History for KEAU - February, 2014

Change the Weather History Date:

Tuesday, February 4, 2014

  Actual Average Record
Temperature  
Mean Temperature 2 °F 16 °F  
Max Temperature 15 °F 26 °F 51 °F (2005)
Min Temperature -12 °F 7 °F -30 °F (1895)
Degree Days  
Heating Degree Days 63 49  
Month to date heating degree days 261 197  
Since 1 July heating degree days 5502 4941  
Cooling Degree Days 0 0  
Month to date cooling degree days 0 0  
Year to date cooling degree days 0 0  
Moisture  
Dew Point -5 °F    
Average Humidity 72    
Maximum Humidity 91    
Minimum Humidity 53    
Precipitation  
Precipitation 0.00 in 0.03 in 0.52 in (1945)
Month to date precipitation T 0.11  
Year to date precipitation 1.58 1.00  
Snow  
Snow 0.00 in 0.30 in 7.70 in (1945)
Month to date snowfall T 1.3  
Since 1 July snowfall 46.0 30.3  
Snow Depth 16.00 in    
Sea Level Pressure  
Sea Level Pressure 30.45 in    
Wind  
Wind Speed 4 mph (North)    
Max Wind Speed 12 mph    
Max Gust Speed 16 mph    
Visibility 8 miles    
Events      
T = Trace of Precipitation, MM = Missing Value Source: NWS Daily Summary

Daily Weather History Graph

Daily Weather History Graph

Search for Another Location

Airport or City:

Trip Planner

Search our weather history database for the weather conditions in past years. The results will help you decide how hot, cold, wet, or windy it might be!

Date:

Astronomy

Feb. 04, 2014 Rise Set
Actual Time 7:21 AM CST 5:18 PM CST
Civil Twilight 6:50 AM CST 5:49 PM CST
Nautical Twilight 6:15 AM CST 6:24 PM CST
Astronomical Twilight 5:41 AM CST 6:58 PM CST
Moon 9:44 AM CST (2/4) 11:30 PM CST (2/4)
Length of Visible Light 10h 58m
Length of Day
9h 56m
Waxing Crescent, 29% of the Moon is Illuminated
Feb 4
Waxing Crescent
Feb 6
First Quarter
Feb 14
Full
Feb 22
Last Quarter
Mar 1
New

Hourly Weather History & Observations

Time (CST) Temp. Windchill Dew Point Humidity Pressure Visibility Wind Dir Wind Speed Gust Speed Precip Events Conditions
12:56 AM -2.9 °F - -6.0 °F 87% 30.42 in 5.0 mi Calm Calm - N/A   Scattered Clouds
1:56 AM -5.1 °F - -9.9 °F 80% 30.43 in 6.0 mi Calm Calm - N/A   Haze
2:56 AM -4.0 °F - -9.0 °F 79% 30.45 in 6.0 mi Calm Calm - N/A   Haze
3:56 AM -6.0 °F - -11.0 °F 79% 30.45 in 6.0 mi Calm Calm - N/A   Haze
4:56 AM -9.0 °F - -15.0 °F 75% 30.46 in 7.0 mi Calm Calm - N/A   Clear
5:56 AM -11.0 °F - -15.0 °F 83% 30.48 in 7.0 mi Calm Calm - N/A   Clear
6:56 AM -11.0 °F - -17.0 °F 75% 30.48 in 8.0 mi Calm Calm - N/A   Clear
7:56 AM -9.9 °F - -16.1 °F 74% 30.50 in 6.0 mi Calm Calm - N/A   Haze
8:56 AM -6.0 °F - -9.9 °F 83% 30.51 in 5.0 mi Calm Calm - N/A   Clear
9:56 AM -0.0 °F - -2.0 °F 91% 30.51 in 5.0 mi Calm Calm - N/A   Clear
10:56 AM 6.1 °F - 1.9 °F 83% 30.50 in 7.0 mi Calm Calm - N/A   Clear
11:56 AM 10.0 °F - -0.0 °F 64% 30.48 in 10.0 mi Calm Calm - N/A   Clear
12:56 PM 14.0 °F 5.1 °F -0.0 °F 54% 30.45 in 9.0 mi North 5.8 mph - 0.00 in   Clear
1:56 PM 15.1 °F 4.2 °F 1.0 °F 54% 30.43 in 10.0 mi NNE 8.1 mph - N/A   Clear
2:56 PM 15.1 °F 5.2 °F 1.0 °F 54% 30.44 in 10.0 mi NNW 6.9 mph - N/A   Clear
3:56 PM 14.0 °F 3.9 °F 1.0 °F 56% 30.45 in 10.0 mi NNW 6.9 mph - N/A   Clear
4:56 PM 12.0 °F 1.5 °F 1.0 °F 61% 30.43 in 10.0 mi NNW 6.9 mph - N/A   Clear
5:56 PM 12.0 °F 1.5 °F -0.0 °F 59% 30.44 in 10.0 mi NNW 6.9 mph - N/A   Clear
6:56 PM 10.0 °F 0.4 °F -0.9 °F 61% 30.43 in 10.0 mi North 5.8 mph - N/A   Clear
7:56 PM 9.0 °F -0.9 °F -2.0 °F 61% 30.43 in 10.0 mi North 5.8 mph - N/A   Overcast
8:56 PM 8.1 °F -4.3 °F -5.1 °F 55% 30.43 in 10.0 mi North 8.1 mph - N/A   Overcast
9:56 PM 6.1 °F -5.6 °F -6.0 °F 58% 30.43 in 10.0 mi North 6.9 mph - N/A   Scattered Clouds
10:56 PM 6.1 °F -7.8 °F -5.1 °F 60% 30.42 in 10.0 mi North 9.2 mph - N/A   Clear
11:56 PM 5.0 °F -8.1 °F -5.1 °F 63% 30.43 in 10.0 mi North 8.1 mph - N/A   Clear